TimeCET,TemperatureF,Dew PointF,Humidity,Sea Level PressureIn,VisibilityMPH,Wind Direction,Wind SpeedMPH,Gust SpeedMPH,PrecipitationIn,Events,Conditions,WindDirDegrees,DateUTC
12:00 AM,33.8,33.8,100,30.01,6.2,NNE,9.2,-,N/A,,Overcast,20,2013-01-06 23:00:00
12:30 AM,33.8,33.8,100,30.01,6.2,North,8.1,-,N/A,,Overcast,350,2013-01-06 23:30:00
1:00 AM,33.8,33.8,100,30.01,6.2,North,6.9,-,N/A,,Mostly Cloudy,360,2013-01-07 00:00:00
1:30 AM,33.8,33.8,100,30.04,6.2,North,9.2,-,N/A,,Mostly Cloudy,10,2013-01-07 00:30:00
2:00 AM,33.8,32.0,93,30.04,6.2,NNW,6.9,-,N/A,,Mostly Cloudy,330,2013-01-07 01:00:00
2:30 AM,33.8,33.8,100,30.04,6.2,North,6.9,-,N/A,,Mostly Cloudy,350,2013-01-07 01:30:00
3:00 AM,32.0,32.0,100,30.04,6.2,ENE,5.8,-,N/A,,Mostly Cloudy,70,2013-01-07 02:00:00
3:30 AM,32.0,32.0,100,30.06,6.2,NNE,4.6,-,N/A,,Mostly Cloudy,30,2013-01-07 02:30:00
4:00 AM,32.0,32.0,100,30.06,6.2,Calm,Calm,-,N/A,,Scattered Clouds,0,2013-01-07 03:00:00
4:30 AM,32.0,32.0,100,30.09,6.2,Variable,2.3,-,N/A,,Mostly Cloudy,0,2013-01-07 03:30:00
5:00 AM,30.2,30.2,100,30.09,6.2,North,4.6,-,N/A,,Mostly Cloudy,360,2013-01-07 04:00:00
5:30 AM,32.0,30.2,93,30.12,6.2,NNE,5.8,-,N/A,,Scattered Clouds,20,2013-01-07 04:30:00
6:00 AM,30.2,28.4,93,30.12,6.2,North,5.8,-,N/A,,Mostly Cloudy,10,2013-01-07 05:00:00
6:30 AM,30.2,28.4,93,30.15,6.2,North,4.6,-,N/A,,Mostly Cloudy,360,2013-01-07 05:30:00
7:00 AM,30.2,28.4,93,30.15,6.2,Variable,2.3,-,N/A,,Mostly Cloudy,0,2013-01-07 06:00:00
7:30 AM,30.2,26.6,86,30.18,6.2,Calm,Calm,-,N/A,,Mostly Cloudy,0,2013-01-07 06:30:00
8:00 AM,30.2,24.8,80,30.18,6.2,Variable,3.5,-,N/A,,Partly Cloudy,0,2013-01-07 07:00:00
8:30 AM,28.4,24.8,86,30.21,6.2,Variable,2.3,-,N/A,,Scattered Clouds,0,2013-01-07 07:30:00
9:00 AM,28.4,24.8,86,30.21,6.2,Variable,1.2,-,N/A,,Mostly Cloudy,0,2013-01-07 08:00:00
9:30 AM,30.2,26.6,86,30.21,6.2,Variable,3.5,-,N/A,,Scattered Clouds,0,2013-01-07 08:30:00
10:00 AM,32.0,26.6,80,30.24,6.2,Variable,2.3,-,N/A,,Mostly Cloudy,0,2013-01-07 09:00:00
10:30 AM,33.8,24.8,70,30.24,6.2,SE,4.6,-,N/A,,Scattered Clouds,140,2013-01-07 09:30:00
11:00 AM,32.0,23.0,69,30.27,6.2,Variable,3.5,-,N/A,,Mostly Cloudy,0,2013-01-07 10:00:00
11:30 AM,33.8,23.0,65,30.27,6.2,Variable,2.3,-,N/A,,Mostly Cloudy,0,2013-01-07 10:30:00
12:00 PM,35.6,21.2,56,30.27,6.2,Variable,2.3,-,N/A,,Scattered Clouds,0,2013-01-07 11:00:00
12:30 PM,39.2,23.0,52,30.27,6.2,Variable,1.2,-,N/A,,Scattered Clouds,0,2013-01-07 11:30:00
1:00 PM,35.6,24.8,65,30.27,6.2,Variable,3.5,-,N/A,,Scattered Clouds,0,2013-01-07 12:00:00
1:30 PM,33.8,23.0,65,30.27,6.2,SSW,4.6,-,N/A,,Scattered Clouds,200,2013-01-07 12:30:00
2:00 PM,33.8,23.0,65,30.27,6.2,SSW,4.6,-,N/A,,Scattered Clouds,210,2013-01-07 13:00:00
2:30 PM,37.4,23.0,56,30.27,6.2,Calm,Calm,-,N/A,,Partly Cloudy,0,2013-01-07 13:30:00
3:00 PM,32.0,21.2,64,30.27,6.2,SSW,4.6,-,N/A,,Scattered Clouds,200,2013-01-07 14:00:00
3:30 PM,32.0,21.2,64,30.30,6.2,SW,5.8,-,N/A,,Scattered Clouds,230,2013-01-07 14:30:00
4:00 PM,28.4,19.4,69,30.30,6.2,Variable,3.5,-,N/A,,Scattered Clouds,0,2013-01-07 15:00:00
4:30 PM,26.6,21.2,80,30.30,6.2,Variable,3.5,-,N/A,,Scattered Clouds,0,2013-01-07 15:30:00
5:00 PM,23.0,19.4,86,30.30,6.2,Variable,2.3,-,N/A,,Scattered Clouds,0,2013-01-07 16:00:00
5:30 PM,24.8,21.2,86,30.33,6.2,Variable,1.2,-,N/A,,Scattered Clouds,0,2013-01-07 16:30:00
6:00 PM,26.6,24.8,93,30.33,6.2,Variable,3.5,-,N/A,,Scattered Clouds,0,2013-01-07 17:00:00
6:30 PM,24.8,19.4,80,30.33,6.2,East,9.2,-,N/A,,Mostly Cloudy,100,2013-01-07 17:30:00
7:00 PM,24.8,19.4,80,30.33,6.2,ESE,6.9,-,N/A,,Mostly Cloudy,110,2013-01-07 18:00:00
7:30 PM,26.6,21.2,80,30.36,6.2,ESE,8.1,-,N/A,,Mostly Cloudy,120,2013-01-07 18:30:00
8:00 PM,26.6,21.2,80,30.36,6.2,ESE,5.8,-,N/A,,Mostly Cloudy,110,2013-01-07 19:00:00
8:30 PM,26.6,19.4,74,30.36,6.2,East,8.1,-,N/A,,Mostly Cloudy,100,2013-01-07 19:30:00
9:00 PM,26.6,19.4,74,30.36,6.2,ESE,8.1,-,N/A,,Mostly Cloudy,110,2013-01-07 20:00:00
9:30 PM,26.6,19.4,74,30.39,6.2,ESE,6.9,-,N/A,,Mostly Cloudy,120,2013-01-07 20:30:00
10:00 PM,26.6,17.6,69,30.39,6.2,ESE,8.1,-,N/A,,Overcast,120,2013-01-07 21:00:00
10:30 PM,24.8,17.6,74,30.39,6.2,SE,8.1,-,N/A,,Overcast,130,2013-01-07 21:30:00
11:00 PM,23.0,15.8,74,30.39,6.2,ESE,4.6,-,N/A,,Mostly Cloudy,110,2013-01-07 22:00:00
11:30 PM,21.2,15.8,80,30.39,6.2,SE,4.6,-,N/A,,Scattered Clouds,130,2013-01-07 22:30:00